Back to catalog

STARLINK-31999

AliveCommunicationsVLEO
NORAD 60101·PAYLOAD·🇺🇸 United States

Launched Jun 23, 2024 from Cape Canaveral Space Force Station

Loading…

Next Passes (next 24 hours)

TLE

FreshSource: CelesTrak SupGP

Epoch: Sep 14, 2026, 13:54 UTC

1 60101C 24117L   26257.57965278 -.00026700  00000+0 -78911-3 0  2576
2 60101  53.1572 237.5413 0001354  85.2862  56.3680 15.34394170    18

Track STARLINK-31999 in real time with AllMySat

Download on the App Store